TimeEST,TemperatureF,Dew PointF,Humidity,Sea Level PressureIn,VisibilityMPH,Wind Direction,Wind SpeedMPH,Gust SpeedMPH,PrecipitationIn,Events,Conditions,WindDirDegrees,DateUTC
12:14 AM,30.2,19.4,64,30.19,10.0,SSE,9.2,-,N/A,,Overcast,160,2013-02-07 05:14:00
12:34 AM,30.0,19.6,65,30.19,10.0,SE,5.8,-,N/A,,Overcast,140,2013-02-07 05:34:00
12:54 AM,30.0,19.2,64,30.20,10.0,SSE,5.8,-,N/A,,Overcast,150,2013-02-07 05:54:00
1:34 AM,30.0,19.4,65,30.19,10.0,SE,6.9,-,N/A,,Overcast,140,2013-02-07 06:34:00
1:54 AM,30.2,18.7,62,30.20,10.0,SE,5.8,-,N/A,,Overcast,130,2013-02-07 06:54:00
2:13 AM,30.2,19.4,64,30.21,10.0,SE,4.6,-,N/A,,Overcast,140,2013-02-07 07:13:00
2:34 AM,30.2,19.2,64,30.21,10.0,SE,6.9,-,N/A,,Overcast,140,2013-02-07 07:34:00
2:53 AM,30.2,18.7,62,30.20,10.0,SE,8.1,-,N/A,,Overcast,140,2013-02-07 07:53:00
3:14 AM,30.2,18.7,62,30.18,10.0,ESE,8.1,-,N/A,,Overcast,110,2013-02-07 08:14:00
3:33 AM,30.2,18.0,60,30.18,10.0,ESE,6.9,-,N/A,,Overcast,120,2013-02-07 08:33:00
3:54 AM,30.0,18.3,62,30.17,10.0,ESE,5.8,-,N/A,,Overcast,120,2013-02-07 08:54:00
4:14 AM,30.0,18.1,61,30.16,10.0,ESE,9.2,-,N/A,,Overcast,120,2013-02-07 09:14:00
4:34 AM,30.0,18.1,61,30.16,10.0,SE,8.1,-,N/A,,Overcast,130,2013-02-07 09:34:00
4:53 AM,30.0,18.7,63,30.16,10.0,SE,9.2,-,N/A,,Overcast,140,2013-02-07 09:53:00
5:14 AM,30.0,18.5,62,30.16,10.0,SE,8.1,-,N/A,,Overcast,140,2013-02-07 10:14:00
5:33 AM,29.7,19.4,66,30.16,10.0,SSE,9.2,-,N/A,,Overcast,150,2013-02-07 10:33:00
5:54 AM,29.7,19.4,66,30.15,10.0,SE,6.9,-,N/A,,Overcast,140,2013-02-07 10:54:00
6:13 AM,29.8,19.4,65,30.15,10.0,SE,5.8,-,N/A,,Mostly Cloudy,140,2013-02-07 11:13:00
6:34 AM,30.0,19.9,66,30.15,10.0,SSE,10.4,-,N/A,,Overcast,150,2013-02-07 11:34:00
6:53 AM,30.2,20.1,66,30.14,10.0,SSE,12.7,-,N/A,,Overcast,150,2013-02-07 11:53:00
7:14 AM,30.2,20.1,66,30.14,10.0,SSE,12.7,-,N/A,,Overcast,160,2013-02-07 12:14:00
7:33 AM,30.2,20.3,67,30.14,10.0,SSE,11.5,-,N/A,,Overcast,150,2013-02-07 12:33:00
7:54 AM,30.4,20.3,66,30.14,10.0,SSE,11.5,-,N/A,,Overcast,150,2013-02-07 12:54:00
8:13 AM,30.6,20.3,66,30.14,10.0,SSE,11.5,-,N/A,,Overcast,150,2013-02-07 13:13:00
8:34 AM,30.7,20.1,65,30.14,7.0,SSE,11.5,-,N/A,,Overcast,160,2013-02-07 13:34:00
8:53 AM,30.9,20.3,65,30.14,7.0,SSE,12.7,-,N/A,,Overcast,160,2013-02-07 13:53:00
9:14 AM,31.5,21.0,65,30.15,7.0,SSE,9.2,-,N/A,,Overcast,160,2013-02-07 14:14:00
9:34 AM,31.6,21.0,65,30.14,7.0,SSE,6.9,-,N/A,,Overcast,150,2013-02-07 14:34:00
9:54 AM,31.8,21.2,65,30.13,10.0,SE,9.2,-,N/A,,Overcast,140,2013-02-07 14:54:00
10:14 AM,32.0,21.0,64,30.12,7.0,SE,9.2,-,N/A,,Overcast,130,2013-02-07 15:14:00
10:34 AM,32.0,21.2,64,30.12,7.0,SE,9.2,-,N/A,,Overcast,130,2013-02-07 15:34:00
10:54 AM,32.4,21.7,65,30.11,7.0,ESE,9.2,-,N/A,,Overcast,120,2013-02-07 15:54:00
11:14 AM,32.9,22.3,65,30.10,7.0,SE,11.5,-,N/A,,Overcast,130,2013-02-07 16:14:00
11:33 AM,33.6,22.8,65,30.10,7.0,SE,8.1,-,N/A,,Overcast,130,2013-02-07 16:33:00
11:54 AM,34.3,23.2,64,30.09,10.0,SE,9.2,-,N/A,,Overcast,130,2013-02-07 16:54:00
12:13 PM,34.9,23.2,62,30.09,7.0,SE,11.5,-,N/A,,Overcast,130,2013-02-07 17:13:00
12:34 PM,35.1,23.7,63,30.07,7.0,SE,9.2,-,N/A,,Overcast,140,2013-02-07 17:34:00
12:53 PM,36.0,24.4,63,30.06,7.0,ESE,6.9,-,N/A,,Overcast,120,2013-02-07 17:53:00
1:14 PM,36.5,24.8,63,30.05,7.0,SE,9.2,-,N/A,,Overcast,130,2013-02-07 18:14:00
1:33 PM,37.4,25.5,62,30.04,7.0,SE,9.2,-,N/A,,Overcast,130,2013-02-07 18:33:00
1:54 PM,37.4,25.7,63,30.02,7.0,SE,9.2,-,N/A,,Overcast,130,2013-02-07 18:54:00
2:14 PM,37.4,26.1,64,30.02,4.0,ESE,4.6,-,N/A,Snow,Light Snow,110,2013-02-07 19:14:00
2:34 PM,36.7,27.5,69,30.01,1.5,ESE,8.1,-,N/A,Snow,Light Snow,120,2013-02-07 19:34:00
2:54 PM,35.6,30.0,80,30.00,1.0,East,5.8,-,N/A,Snow,Light Snow,90,2013-02-07 19:54:00
3:13 PM,35.6,30.7,82,29.99,1.8,ENE,4.6,-,N/A,Snow,Light Snow,70,2013-02-07 20:13:00
3:34 PM,35.8,30.2,80,29.98,1.5,ENE,6.9,-,N/A,Snow,Light Snow,60,2013-02-07 20:34:00
3:53 PM,35.8,30.9,82,29.98,5.0,ENE,8.1,-,N/A,,Haze,70,2013-02-07 20:53:00
4:13 PM,36.5,29.3,75,29.96,10.0,East,9.2,-,N/A,,Overcast,80,2013-02-07 21:13:00
4:34 PM,36.7,29.3,75,29.96,10.0,East,8.1,-,N/A,,Overcast,80,2013-02-07 21:34:00
4:53 PM,36.9,29.3,74,29.95,7.0,ENE,9.2,-,N/A,,Overcast,70,2013-02-07 21:53:00
5:14 PM,36.9,29.1,74,29.93,7.0,ENE,8.1,-,N/A,,Overcast,60,2013-02-07 22:14:00
5:33 PM,37.0,28.8,72,29.93,10.0,ENE,8.1,-,N/A,,Overcast,70,2013-02-07 22:33:00
5:54 PM,37.0,28.4,71,29.92,10.0,ENE,8.1,-,N/A,,Overcast,70,2013-02-07 22:54:00
6:34 PM,36.7,28.4,72,29.92,10.0,East,10.4,-,N/A,,Overcast,80,2013-02-07 23:34:00
6:53 PM,36.7,28.0,71,29.91,10.0,East,10.4,-,N/A,,Overcast,80,2013-02-07 23:53:00
7:14 PM,36.9,27.5,69,29.91,10.0,ENE,10.4,-,N/A,,Overcast,70,2013-02-08 00:14:00
7:34 PM,36.9,27.3,68,29.90,10.0,ENE,11.5,18.4,N/A,,Overcast,70,2013-02-08 00:34:00
7:54 PM,36.7,27.3,69,29.90,10.0,East,11.5,-,N/A,,Overcast,80,2013-02-08 00:54:00
8:14 PM,36.5,27.5,70,29.89,10.0,ENE,9.2,-,N/A,,Overcast,70,2013-02-08 01:14:00
8:34 PM,36.5,27.9,71,29.90,7.0,East,6.9,-,N/A,Snow,Light Snow,80,2013-02-08 01:34:00
8:54 PM,35.8,29.1,77,29.89,1.5,East,9.2,-,N/A,Snow,Light Snow,80,2013-02-08 01:54:00
9:14 PM,34.7,30.7,85,29.90,0.8,East,10.4,-,N/A,Snow,Snow,80,2013-02-08 02:14:00
9:34 PM,34.0,30.6,87,29.91,0.5,East,10.4,-,0.01,Snow,Snow,90,2013-02-08 02:34:00
9:54 PM,33.8,30.6,88,29.90,0.5,East,6.9,-,0.02,Snow,Heavy Snow,80,2013-02-08 02:54:00
10:14 PM,33.8,30.7,89,29.89,0.5,East,9.2,-,0.01,Snow,Snow,80,2013-02-08 03:14:00
10:34 PM,33.8,30.7,89,29.89,0.8,East,9.2,-,0.02,Snow,Snow,80,2013-02-08 03:34:00
10:54 PM,33.1,30.2,89,29.88,0.8,ENE,15.0,19.6,0.02,Snow,Snow,70,2013-02-08 03:54:00
11:14 PM,32.9,29.8,88,29.87,0.8,ENE,10.4,-,N/A,Snow,Snow,70,2013-02-08 04:14:00
11:34 PM,32.2,29.1,88,29.85,0.8,ENE,12.7,18.4,N/A,Snow,Snow,70,2013-02-08 04:34:00
11:54 PM,32.0,28.8,88,29.85,1.2,ENE,10.4,-,N/A,Snow,Light Snow,60,2013-02-08 04:54:00